AirNav   Jet Aviation Boston
 
 1777 users online  

L54 Agua Caliente Springs Airport
Agua Caliente Springs, California, USA

GOING TO AGUA CALIENTE SPRINGS?


FAA INFORMATION EFFECTIVE 24 MAY 2018

Location

FAA Identifier: L54
Lat/Long: 32-57-20.5000N / 116-17-41.0000W
32-57.341667N / 116-17.683333W
32.9556944 / -116.2947222
(estimated)
Elevation: 1220 ft. / 372 m (estimated)
Variation: 13E (1985)
From city: 1 mile NE of AGUA CALIENTE SPRINGS, CA
Time zone: UTC -7 (UTC -8 during Standard Time)
Zip code: 92036

Airport Operations

Airport use: Open to the public
Activation date: 07/1960
Control tower: no
ARTCC: LOS ANGELES CENTER
FSS: SAN DIEGO FLIGHT SERVICE STATION
NOTAMs facility: SAN (NOTAM-D service available)
Attendance: UNATNDD
Pattern altitude: 2020 ft. MSL
Wind indicator: yes
Segmented circle: yes

Airport Communications

CTAF: 122.9
WX AWOS-3 at L08 (18 nm N): 126.575 (760-767-3308)

Nearby radio navigation aids

VOR radial/distance  VOR name  Freq  Var
JLIr112/18.4JULIAN VORTAC114.0015E

Airport Services

Parking: tiedowns
Bottled oxygen: NONE
Bulk oxygen: NONE

Runway Information

Runway 11/29

Dimensions: 2500 x 60 ft. / 762 x 18 m
Surface: asphalt, in excellent condition
Weight bearing capacity: 
Single wheel: 12.0
Operational restrictions: CLSD SS-SR; NOT LGTD.
RUNWAY 11  RUNWAY 29
Latitude: 32-57.439708N32-57.244717N
Longitude: 116-17.898627W116-17.467657W
Gradient: 1.0%1.0%
Traffic pattern: leftright
HILL 0.5 MI W OF AP.
Runway heading: 105 magnetic, 118 true285 magnetic, 298 true
Markings: basic, in good conditionbasic, in good condition
Runway end identifier lights: nono
Obstructions: 460 ft. hill, 2500 ft. from runway, 5:1 slope to clearnone

Airport Ownership and Management from official FAA records

Ownership: Publicly-owned
Owner: COUNTY OF SAN DIEGO
1960 JOE CROSSON DRIVE
EL CAJON, CA 92020-1142
Phone 619-956-4800
Manager: MR. MARC BASKEL
1960 JOE CROSSON DRIVE
EL CAJON, CA 92020
Phone (619) 956-4800
AMGRS OFFICE AT GILLESPIE FIELD.

Airport Operational Statistics

Aircraft operations: avg 85/week *
99% transient general aviation
1% military
* for 12-month period ending 31 December 2017

Additional Remarks

HAZARDOUS DURING RAINS OR FLASH FLOODS.
OBSTRN PART 77-MTNS S & W OF RWY, DIRT BERM, DITCH, SAND BOTH SIDES OF RWY.
ACFT TIED DOWN WITHIN PRIMARY SFC.
WIND PERMITTING USE OF RY 29 FOR LANDING AND RY 11 FOR DEPARTURE RECOMMENDED DUE TO 460 FT HILL 1/2 MILE WEST OF AIRPORT
RWY 11/29 CLSD SS-SR, NOT LGTD.
ACFT SHALL SELF ANNC ON CTAF PRIOR TO LDG OR DEP.
PPR FOR ALL MIL ACFT, COPTER SKID/RUN-ON LDG PROHIBITED; CTC AMGR.

Instrument Procedures

There are no published instrument procedures at L54.

Some nearby airports with instrument procedures:

L08 - Borrego Valley Airport (18 nm N)
KRNM - Ramona Airport (32 nm W)
KNJK - El Centro NAF Airport (32 nm E)
KSEE - Gillespie Field Airport (35 nm W)
KIPL - Imperial County Airport (37 nm E)
 
Loc | Ops | Rwys | IFR | FBO | Links
Com | Nav | Svcs | Stats | Notes

AirNav Hotels Sweepstakes
 
Area around L54 (Agua Caliente Springs Airport)
 
Road maps at: MapQuest Bing Google
 
Aerial photo
WARNING: Photo may not be current or correct
Aerial photo of L54 (Agua Caliente Springs Airport)
Do you have a better or more recent aerial photo of Agua Caliente Springs Airport that you would like to share? If so, please send us your photo.

 
Sectional chart

 
Airport distance calculator
Flying to Agua Caliente Springs Airport? Find the distance to fly.

From to L54

Sunrise and sunset
Times for 24-May-2018
 Local
(UTC-7)
 Zulu
(UTC)
Morning civil twilight05:1412:14
Sunrise05:4212:42
Sunset19:4302:43
Evening civil twilight20:1003:10

Current date and time
Zulu (UTC)  24-May-2018 20:13:18
Local (UTC-7)  24-May-2018 13:13:18
 
METAR
KCZZ 
21nm SW 
241952Z AUTO 22014G18KT 21/10 A3003 RMK AO1 SLP145 T02060100
KRNM 
32nm W 
242000Z VRB06KT 10SM BKN009 OVC013 16/13 A3008 RMK AO2 CIG 007V011 T01560128
KNJK 
33nm E 
241956Z VRB05KT 9SM CLR 31/09 A2992 RMK AO2 SLP148 T03060094 $
KSEE 
35nm W 
241947Z VRB04KT 7SM OVC018 18/12 A3009
KIPL 
37nm E 
241953Z AUTO 08005KT 8SM CLR 32/11 A2990 RMK AO2 SLP127 T03170106
KTRM 
41nm N 
241952Z AUTO VRB05KT 10SM CLR 32/08 A2989 RMK AO2 SLP125 T03220083
KSDM 
42nm SW 
241953Z VRB04KT 10SM OVC017 17/12 A3008 RMK AO2 SLP184 T01720122
MMTJ 
42nm SW 
241941Z 00000KT 8SM OVC017 17/11 A3011 RMK 8/5// HZY
TAF
KNJK 
33nm E 
2415/2515 VRB06KT 9999 SKC QNH2981INS TEMPO 2419/2501 14009KT FM250100 25010KT 9999 SKC 520109 QNH2982INS TEMPO 2501/2507 25016KT T34/2423Z T17/2513Z FS30093
KIPL 
37nm E 
241720Z 2418/2518 14008KT P6SM SKC FM250100 26015G22KT P6SM SKC FM251000 27012KT P6SM SKC
NOTAMs
Click for the latest NOTAMs
NOTAMs are issued by the DoD/FAA and will open in a separate window not controlled by AirNav.

 

 
 

Things to do: Attractions on or near the airport

  
 Business Name 
 
 Contact 
 
 Services / Description 
 
Distance
 
Comments
  
Agua Caliente County Park no information available

If you are affiliated with Agua Caliente County Park and would like to show here your services, contact info, web link, logo, and more, click here
0.2 miles  
   1 read write
 

Would you like to see your business listed on this page?

 If your business provides an interesting product or service to pilots, flight crews, aircraft, or users of the Agua Caliente Springs Airport, you should consider listing it here.  To start the listing process, click on the button below
 
Add a business
 

Other Pages about Agua Caliente Springs Airport

www.co.san-diego.ca.us/...
 
Update a link
 
Copyright © AirNav, LLC. All rights reserved. Privacy Policy  Contact